Simultaneous Nadir Overpasses (SNOs) Predictions

Prediction of SNOs between AQUA and METOP-C Satellite Orbit:

Table of predicted SNOs for the next 14.0 days since TLE Epoch: 1/28/2023
Index Date (AQUA) Time (AQUA) Lat,Lon (AQUA) SZA (AQUA ) Date (METOP-C) Time (METOP-C) Lat,Lon (METOP-C) SZA (METOP-C ) Distance(km) Time Diff (sec)
1 01/30/2023 15:20:17 -74.22, 125.23 88.11 01/30/2023 15:19:51 -74.23, 125.32 88.10 2.91 26
2 01/30/2023 16:09:44 74.25, -67.20 91.91 01/30/2023 16:10:30 74.27, -67.25 91.93 2.63 46
3 02/02/2023 09:14:11 -74.14,-143.04 88.97 02/02/2023 09:12:57 -74.07,-143.33 89.01 11.68 74
4 02/02/2023 10:03:39 74.22, 24.41 91.11 02/02/2023 10:03:33 74.25, 24.44 91.14 3.00 6
5 02/02/2023 10:53:05 -74.30,-168.12 88.82 02/02/2023 10:54:14 -74.30,-168.10 88.83 0.59 69
6 02/05/2023 03:57:32 74.21, 115.99 90.29 02/05/2023 03:56:35 74.22, 116.10 90.30 3.59 57
7 02/05/2023 04:46:58 -74.28, -76.54 89.65 02/05/2023 04:47:16 -74.28, -76.41 89.66 3.70 18
8 02/05/2023 05:36:37 74.93, 89.49 91.05 02/05/2023 05:37:42 74.93, 92.66 90.93 91.67 65
9 02/07/2023 22:40:50 -74.23, 15.15 90.55 02/07/2023 22:40:20 -74.20, 15.13 90.57 2.72 30
10 02/07/2023 23:30:17 74.26,-177.30 89.48 02/07/2023 23:30:58 74.26,-177.39 89.47 2.75 41
11 02/10/2023 16:34:39 -74.08, 107.05 91.59 02/10/2023 16:33:26 -74.02, 106.41 91.62 20.58 73
12 02/10/2023 17:24:08 74.22, -85.65 88.56 02/10/2023 17:24:01 74.21, -85.77 88.55 3.85 7



Historial Predications of SNOs between AQUA and METOP-C
